[[{"header":{"parameterUnit":"m.s-1","parameterCategory":1,"la1":30.2991,"la2":30.254,"lo1":-89.0895,"lo2":-89.0444,"dy":0.0017,"dx":0.0017,"nx":28,"ny":28,"refTime":"2024-06-24T21:00:00:Z","depth":0,"parameterNumber":2,"parameterNumberName":"U-component_of_WINDS"},"data":[0,0,0,0,0,0,0,0,0,0,0,0,0,0,0,0,0,0,0,0,0,0,0,0,0,0,0,0,0,0,0,0,0,0,0,0,0,0,0,0,0,0,0,0,0,0,0,0,0,0,0,0,0,0,0,0,0,0,2.9978,2.9979,0,3.0137,3.0139,3.0141,3.0111,3.0108,3.0105,3.0102,3.0271,3.0278,3.0285,0,0,0,0,0,0,0,0,0,0,0,0,0,2.9653,2.9659,2.9977,2.998,2.9982,3.0137,3.0139,3.0141,3.0111,3.0107,3.0104,3.0101,3.0268,3.0277,3.0285,0,0,0,0,0,0,0,0,0,0,0,0,0,2.9801,2.9661,2.9977,2.9985,2.9987,3.0137,3.0139,3.0142,3.0112,3.0107,3.0103,3.0099,3.0265,3.0276,3.0287,3.044,0,0,3.0319,3.0324,0,0,0,0,0,0,0,0,2.9793,2.9813,2.9982,2.9985,2.9988,3.0099,3.0086,3.0242,3.0113,3.0065,3.0102,3.0097,3.0218,3.0232,3.0272,3.0447,3.0455,3.032,3.0327,3.0332,3.0335,0,0,0,0,0,0,0,2.9783,2.9806,3.0041,2.9984,2.9988,2.9983,2.9999,3.0116,3.0164,3.0069,3.0067,3.0086,3.0218,3.0261,3.0275,3.0457,3.032,3.033,3.0336,3.034,3.077,3.0774,0,0,0,0,0,0,2.9769,2.9798,3.0036,3.0046,2.9877,2.9992,3.001,3.0068,3.0162,3.0172,3.0089,3.0084,3.0245,3.0263,3.0281,3.0468,3.0331,3.0342,3.0348,3.0765,3.0771,3.0776,0,0,0,0,0,0,2.9762,2.979,3.0029,2.9921,2.9951,3.0002,3.0067,3.0073,3.0116,3.0178,3.0187,3.0124,3.0242,3.0266,3.0401,3.0473,3.0346,3.0356,3.0759,3.0767,3.0773,3.0842,0,0,0,0,0,0,2.9753,2.9788,2.9845,2.9923,2.9957,3.0144,3.0072,3.008,3.0134,3.0129,3.0213,3.0223,3.0241,3.0385,3.0411,3.0486,3.0365,3.0753,3.0762,3.0771,3.0834,3.0851,3.0866,0,0,0,0,0,2.9741,2.9859,2.9848,2.9877,3.0029,3.0149,3.0169,3.0185,3.014,3.0199,3.0239,3.022,3.0461,3.0399,3.0428,3.0507,3.0748,3.076,3.077,3.0827,3.0848,3.0866,0,0,0,0,0,0,2.979,2.9869,2.9858,3.0004,3.007,3.0143,3.0218,3.0207,3.0288,3.028,3.0299,3.0318,3.0456,3.0495,3.0424,3.0662,3.0599,3.0616,3.0631,3.0652,3.0668,3.0656,3.0373,0,0,0,0,0,2.9817,2.9905,2.9971,3.0093,3.0127,3.0167,3.0219,3.0227,3.0296,3.0325,3.0374,3.0444,3.0536,3.0596,3.0683,3.0839,3.0859,3.0909,3.0925,3.0938,3.0953,3.1041,3.1064,3.0813,3.0812,3.0812,0,0,2.9875,2.9929,2.9984,3.0104,3.0156,3.025,3.019,3.0291,3.0361,3.034,3.047,3.051,3.0589,3.0736,3.0803,3.0773,3.1027,3.0952,3.0962,3.097,3.1055,3.1078,3.11,3.082,3.0819,3.0818,0,0,3.0028,3.0077,3.0185,3.0239,3.0318,3.0344,3.037,3.0446,3.0471,3.0601,3.0588,3.0673,3.083,3.0888,3.0938,3.1115,3.1102,3.1144,3.1228,3.1314,3.1333,3.1351,3.1417,3.1439,3.1158,3.1159,3.1159,0,3.0091,3.0229,3.0243,3.0346,3.04,3.0384,3.0495,3.0547,3.0651,3.069,3.0655,3.0853,3.0905,3.1066,3.1109,3.115,3.1182,3.1134,3.1329,3.1347,3.1364,3.1426,3.1451,3.1163,3.1163,3.1162,3.1162,0,3.0303,3.0399,3.0477,3.0577,3.0641,3.0747,3.078,3.0842,3.0845,3.0876,3.1011,3.1073,3.1174,3.1212,3.1216,3.1375,3.1354,3.1324,3.1261,3.1392,3.1452,3.1475,3.117,3.1168,3.1167,3.1166,0,0,3.049,3.0597,3.0626,3.0672,3.0759,3.0835,3.0942,3.1039,3.1094,3.1167,3.1259,3.1393,3.1366,3.1423,3.1433,3.1508,3.1647,3.1469,3.1471,3.1501,3.1829,3.1852,3.1879,3.1638,3.1643,3.1647,3.1823,0,3.0653,3.0839,3.0856,3.1025,3.1116,3.1103,3.1197,3.1262,3.1294,3.1377,3.1413,3.1509,3.1465,3.1499,3.1573,3.1615,3.1714,3.1602,3.1727,3.1731,3.1708,3.191,3.1934,3.2097,3.1846,3.185,3.1853,0,3.0867,3.0945,3.1123,3.1199,3.1237,3.1321,3.1413,3.1492,3.1566,3.1585,3.1649,3.165,3.1763,3.1695,3.1853,3.1776,3.1829,3.1857,3.1864,3.1877,3.18,3.193,3.215,3.2175,3.1889,3.1886,3.1883,0,3.0988,3.1138,3.1264,3.1304,3.1395,3.1455,3.1496,3.1566,3.1624,3.1705,3.1744,3.1837,3.1889,3.1963,3.199,3.1938,3.2148,3.2081,3.2168,3.2168,3.2213,3.221,3.2446,3.2245,3.2244,3.2244,3.2243,0,3.1168,3.1278,3.132,3.1398,3.1521,3.154,3.1663,3.1701,3.1764,3.1851,3.1846,3.1928,3.1959,3.2047,3.2069,3.2197,3.222,3.224,3.2245,3.2242,3.2239,3.2277,3.2267,3.2251,3.2249,3.2248,3.2247,0,3.1324,3.1356,3.1493,3.1569,3.1591,3.1678,3.1744,3.1821,3.1852,3.1962,3.1989,3.2039,3.2143,3.2177,3.2302,3.2318,3.2468,3.2462,3.2442,3.2444,3.2529,3.2521,3.2798,3.2837,3.2609,3.2611,3.2613,0,3.1437,3.1521,3.1606,3.1663,3.1706,3.1798,3.1858,3.1881,3.1944,3.2036,3.2102,3.2204,3.2287,3.2454,3.2503,3.26,3.2597,3.2688,3.2612,3.2606,3.2601,3.2596,3.2606,3.2702,3.2705,3.2706,3.2708,0,3.1636,3.1648,3.1733,3.1825,3.1895,3.1969,3.204,3.2088,3.2122,3.2193,3.2298,3.2362,3.2491,3.2593,3.2692,3.2737,3.273,3.2731,3.2757,3.2755,3.2741,3.2751,3.2483,3.2725,3.2723,3.2722,3.2721,3.2721,3.1775,3.185,3.1922,3.2017,3.2073,3.214,3.2216,3.2257,3.2344,3.245,3.2459,3.2573,3.2648,3.278,3.283,3.2921,3.2896,3.2933,3.2942,3.2951,3.2959,3.2725,3.2939,3.2939,3.2938,3.2938,3.2938,0,3.1975,3.2021,3.2108,3.2208,3.2284,3.2268,3.2347,3.2412,3.2512,3.2582,3.2663,3.2786,3.2886,3.2943,3.3044,3.3106,3.3106,3.3132,3.3129,3.314,3.2975,3.2943,3.3131,3.3131,3.3131,3.3131,3.3131,3.3131,3.2088,3.2214,3.2236,3.2391,3.2436,3.2547,3.2594,3.2657,3.2712,3.2849,3.2931,3.2967,3.3033,3.3139,3.3231,3.3245,3.3284,3.3313,3.3326,3.3171,3.3151,3.3132,3.3103,3.3321,3.3321,3.3483,3.3485,3.3486]},{"header":{"parameterUnit":"m.s-1","parameterCategory":1,"la1":30.2991,"la2":30.254,"lo1":-89.0895,"lo2":-89.0444,"dy":0.0017,"dx":0.0017,"nx":28,"ny":28,"refTime":"2024-06-24T21:00:00:Z","depth":0,"parameterNumber":3,"parameterNumberName":"V-component_of_WINDS"},"data":[0,0,0,0,0,0,0,0,0,0,0,0,0,0,0,0,0,0,0,0,0,0,0,0,0,0,0,0,0,0,0,0,0,0,0,0,0,0,0,0,0,0,0,0,0,0,0,0,0,0,0,0,0,0,0,0,0,0,3.2402,3.2405,0,3.2668,3.2671,3.2674,3.2724,3.2722,3.272,3.2718,3.2989,3.2998,3.3007,0,0,0,0,0,0,0,0,0,0,0,0,0,3.1939,3.1947,3.2402,3.2406,3.2409,3.2667,3.2671,3.2675,3.2724,3.2722,3.2719,3.2717,3.2986,3.2997,3.3008,0,0,0,0,0,0,0,0,0,0,0,0,0,3.2166,3.195,3.2402,3.2465,3.2473,3.2667,3.2671,3.2676,3.2725,3.2722,3.2719,3.2716,3.2982,3.2996,3.3009,3.3158,0,0,3.3052,3.3057,0,0,0,0,0,0,0,0,3.2153,3.2183,3.2452,3.2461,3.2471,3.266,3.2607,3.2837,3.2726,3.2629,3.2718,3.2714,3.2882,3.2904,3.2961,3.3171,3.3182,3.3053,3.3061,3.3067,3.3071,0,0,0,0,0,0,0,3.2137,3.2172,3.2507,3.2456,3.2467,3.248,3.2509,3.2651,3.277,3.2638,3.2642,3.2673,3.2886,3.2947,3.2967,3.3186,3.3052,3.3065,3.3073,3.3078,3.3534,3.3538,0,0,0,0,0,0,3.211,3.2158,3.2499,3.2515,3.2301,3.2491,3.2523,3.2602,3.2769,3.2791,3.2675,3.2674,3.2925,3.2951,3.2977,3.3164,3.3067,3.308,3.3088,3.353,3.3535,3.3539,0,0,0,0,0,0,3.21,3.214,3.2488,3.2338,3.2383,3.2503,3.2591,3.2609,3.267,3.2797,3.2819,3.2715,3.2924,3.2958,3.3113,3.3174,3.3086,3.3099,3.3526,3.3532,3.3537,3.3538,0,0,0,0,0,0,3.2087,3.2136,3.2194,3.2339,3.2391,3.262,3.2594,3.2617,3.2694,3.2695,3.2841,3.2862,3.2924,3.3092,3.3127,3.3191,3.3109,3.3521,3.3528,3.3535,3.3533,3.3543,3.3551,0,0,0,0,0,3.207,3.2183,3.2196,3.2237,3.2466,3.2623,3.2653,3.2722,3.2698,3.2758,3.2839,3.2857,3.3161,3.3108,3.3147,3.3217,3.3517,3.3526,3.3535,3.3529,3.3541,3.3551,0,0,0,0,0,0,3.2041,3.2203,3.222,3.2383,3.2489,3.2631,3.2708,3.2733,3.2848,3.2844,3.2924,3.2957,3.3109,3.3178,3.3116,3.337,3.3338,3.3355,3.332,3.3332,3.3341,3.3322,3.3121,0,0,0,0,0,3.2054,3.2168,3.2303,3.2434,3.2487,3.2588,3.2659,3.2704,3.2817,3.2862,3.2955,3.3064,3.3184,3.3262,3.3379,3.3542,3.3576,3.361,3.3619,3.3626,3.364,3.3733,3.375,3.3567,3.3567,3.3567,0,0,3.2081,3.2184,3.2251,3.2431,3.2519,3.2636,3.2626,3.2749,3.2838,3.288,3.3034,3.3106,3.3233,3.3393,3.3468,3.3456,3.3697,3.3637,3.3641,3.3652,3.3744,3.3761,3.3776,3.3573,3.3572,3.3571,0,0,3.2192,3.228,3.24,3.2488,3.262,3.2687,3.2716,3.2855,3.2905,3.306,3.3095,3.3201,3.3406,3.3496,3.3568,3.3713,3.3734,3.3749,3.3797,3.3887,3.3902,3.3915,3.3969,3.3987,3.3762,3.3762,3.3762,0,3.2209,3.2387,3.2458,3.2582,3.2661,3.2705,3.2827,3.2909,3.3073,3.3127,3.311,3.337,3.3458,3.3641,3.3676,3.3733,3.3769,3.3733,3.3894,3.3908,3.3921,3.3973,3.3993,3.3763,3.3763,3.3763,3.3763,0,3.2403,3.2526,3.2607,3.2765,3.2853,3.2975,3.3065,3.3145,3.3182,3.325,3.3408,3.3516,3.3657,3.3703,3.374,3.3892,3.388,3.3878,3.3847,3.3939,3.3989,3.4009,3.3765,3.3764,3.3764,3.3764,0,0,3.2503,3.27,3.2728,3.2801,3.2951,3.3048,3.3172,3.3311,3.3379,3.349,3.3597,3.377,3.3769,3.3851,3.3898,3.3977,3.4087,3.3965,3.3969,3.3986,3.4264,3.4266,3.4288,3.4102,3.4106,3.4109,3.4254,0,3.2633,3.2857,3.2925,3.3113,3.3228,3.3272,3.3381,3.3485,3.3552,3.366,3.3734,3.3857,3.3845,3.3895,3.3975,3.4057,3.4145,3.4047,3.4203,3.4208,3.4172,3.4314,3.4317,3.4449,3.4274,3.4277,3.428,0,3.2814,3.293,3.313,3.3266,3.3317,3.3414,3.3547,3.3649,3.3768,3.3812,3.3904,3.3944,3.4077,3.4037,3.4221,3.4153,3.4221,3.4271,3.4278,3.4297,3.4251,3.4339,3.4493,3.4513,3.4311,3.4309,3.4306,0,3.287,3.3075,3.3222,3.3283,3.3445,3.3512,3.3583,3.3699,3.3778,3.3895,3.3947,3.4076,3.4148,3.4247,3.4322,3.4286,3.45,3.4466,3.4541,3.454,3.4586,3.4582,3.4755,3.4626,3.4625,3.4625,3.4625,0,3.3009,3.3129,3.3249,3.334,3.3477,3.3554,3.3687,3.376,3.3863,3.3969,3.4014,3.4112,3.4204,3.4315,3.4374,3.4518,3.4549,3.4589,3.4604,3.4586,3.4582,3.4633,3.4627,3.463,3.4629,3.4628,3.4627,0,3.3094,3.3179,3.3343,3.3483,3.3521,3.3616,3.3737,3.3827,3.3896,3.4029,3.4065,3.4174,3.4306,3.439,3.4559,3.4598,3.4757,3.4768,3.4718,3.4725,3.4796,3.4789,3.5009,3.5043,3.4889,3.489,3.4891,0,3.3178,3.3273,3.3424,3.3498,3.357,3.3688,3.377,3.3849,3.3932,3.4076,3.4149,3.4284,3.4397,3.4607,3.4701,3.483,3.4846,3.4914,3.4865,3.4846,3.4849,3.4844,3.4854,3.4922,3.4924,3.4925,3.4925,0,3.3319,3.3357,3.3472,3.3604,3.37,3.3807,3.3914,3.3972,3.407,3.4161,3.4298,3.4385,3.4558,3.4693,3.483,3.4903,3.4932,3.494,3.4964,3.4949,3.4916,3.4937,3.4741,3.4935,3.4934,3.4933,3.4933,3.4932,3.3408,3.3495,3.3615,3.3743,3.3832,3.3931,3.4023,3.4104,3.422,3.4367,3.4406,3.4549,3.4667,3.4855,3.4931,3.5045,3.5036,3.5071,3.508,3.5088,3.509,3.4896,3.507,3.507,3.5069,3.5069,3.5069,0,3.3553,3.3633,3.375,3.3898,3.4,3.4017,3.4136,3.422,3.4345,3.4453,3.4563,3.4721,3.4852,3.4957,3.5091,3.5162,3.5179,3.5195,3.5192,3.5209,3.5089,3.5056,3.518,3.518,3.518,3.518,3.518,3.518,3.364,3.3788,3.384,3.4033,3.4112,3.4254,3.4321,3.4413,3.4499,3.4673,3.4783,3.485,3.4957,3.51,3.5221,3.5249,3.5297,3.5312,3.5342,3.5229,3.5217,3.5205,3.5174,3.5321,3.5321,3.5452,3.5453,3.5454]}]]